Disclaimer

Please do not use the information listed here in-flight or in-navigation, as they are not provided to us by the airports but are provided by volunteers, so they might be outdated.

Search


Regions


Airport information page

Radio informations:
Tower (TWR) - 135.75 MHz
Approach (APP) - 120.25 MHz

Airport informations:
Latitude: 46° 55' 03.00" N
Longitude: 019° 44' 57.20" E
Elevation: 376 feet - 115 meters
Operating hours: 24 hour operations
Operating agency: Military
Timezone: UTC+1(+2DT) - Last Sunday in March to last Sunday in October
Fuel: N/A

Runway information:
12/30 - 8200 x 197 feet< - >2499 x 60 meters

Recent METARs:
LHKE 160145Z 27016G25KT 9999 SCT040 BKN055 05/M04 Q1012 NOSIG RMK BLU
LHKE 160215Z 28017KT 250V320 9999 SCT040 BKN055 05/M04 Q1012 NOSIG RMK BLU
LHKE 160245Z 28016G27KT 9999 BKN040 06/M04 Q1012 NOSIG RMK BLU

Airport on the map: